TimeCAT,TemperatureF,Dew PointF,Humidity,Sea Level PressureIn,VisibilityMPH,Wind Direction,Wind SpeedMPH,Gust SpeedMPH,PrecipitationIn,Events,Conditions,WindDirDegrees,DateUTC
12:00 AM,84.2,62.6,48,29.98,-9999.0,WSW,4.6,-,N/A,,Clear,240,2012-10-26 22:00:00
5:00 AM,75.2,60.8,61,30.01,-9999.0,SW,6.9,-,N/A,,Clear,230,2012-10-27 03:00:00
6:00 AM,75.2,60.8,61,30.01,-9999.0,WSW,4.6,-,N/A,,Clear,240,2012-10-27 04:00:00
7:00 AM,75.2,62.6,65,30.06,6.2,SSE,5.8,-,N/A,,Scattered Clouds,160,2012-10-27 05:00:00
8:00 AM,77,63,52,,6,SSE,5.8,,,,Partly Cloudy,160,2012-10-27 06:00:00
8:00 AM,77.0,62.6,61,30.09,6.2,SSE,5.8,-,N/A,,Scattered Clouds,160,2012-10-27 06:00:00
9:00 AM,82.4,60.8,48,30.09,6.2,SSW,6.9,-,N/A,,Scattered Clouds,200,2012-10-27 07:00:00
10:00 AM,86.0,59.0,40,30.06,6.2,SW,8.1,-,N/A,,Scattered Clouds,230,2012-10-27 08:00:00
11:00 AM,89.6,60.8,38,30.06,6.2,West,4.6,-,N/A,,Scattered Clouds,260,2012-10-27 09:00:00
12:00 PM,91.4,59.0,34,30.04,6.2,South,3.5,-,N/A,,Scattered Clouds,190,2012-10-27 10:00:00
1:00 PM,91.4,59.0,34,30.01,6.2,South,5.8,-,N/A,,Scattered Clouds,190,2012-10-27 11:00:00
2:00 PM,94,59,22,,6,ESE,6.9,,,,Haze,120,2012-10-27 12:00:00
2:00 PM,93.2,59.0,32,29.98,6.2,ESE,6.9,-,N/A,,Scattered Clouds,120,2012-10-27 12:00:00
3:00 PM,93.2,59.0,32,30.04,6.2,Variable,1.2,-,N/A,,Scattered Clouds,0,2012-10-27 13:00:00
4:00 PM,93.2,59.0,32,29.95,6.2,North,8.1,-,N/A,,Scattered Clouds,10,2012-10-27 14:00:00
5:00 PM,93.2,59.0,32,29.95,6.2,North,5.8,-,N/A,,Scattered Clouds,350,2012-10-27 15:00:00
6:00 PM,93.2,59.0,32,29.95,6.2,North,4.6,-,N/A,,Partly Cloudy,350,2012-10-27 16:00:00
7:00 PM,89.6,59.0,36,29.98,6.2,ESE,13.8,-,N/A,,Scattered Clouds,120,2012-10-27 17:00:00
8:00 PM,80,62,44,,6,ESE,11.5,,,,Scattered Clouds,120,2012-10-27 18:00:00
8:00 PM,80.6,62.6,54,30.01,-9999.0,ESE,11.5,-,N/A,,Clear,120,2012-10-27 18:00:00
9:00 PM,77.0,60.8,57,30.04,-9999.0,ESE,9.2,-,N/A,,Clear,110,2012-10-27 19:00:00
10:00 PM,77.0,62.6,61,30.04,-9999.0,ENE,5.8,-,N/A,,Clear,70,2012-10-27 20:00:00
11:00 PM,73.4,60.8,65,30.04,-9999.0,SE,8.1,-,N/A,,Clear,130,2012-10-27 21:00:00